Tracking 19193 objects as of 23-Jun-2018
HD Live streaming from Space Station
objects crossing your sky now

NIMBUS 2 DEB

Track NIMBUS 2 DEB now!
10-day predictions


NORAD ID: 28610
Int'l Code: 1966-040Z
Perigee: 1,042.5 km
Apogee: 1,113.2 km
Inclination: 100.5 °
Period: 106.6 minutes
Semi major axis: 7448 km
RCS: 0.0177 m2 (small)
Launch date: May 15, 1966
Source: United States (US)
Launch site: AIR FORCE WESTERN TEST RANGE (AFWTR)

Note: This is SATELLITE DEBRIS
aabbcc
Your satellite tracking list
Your tracking list is empty




NASA's NSSDC Master Catalog

Two Line Element Set (TLE):
1 28610U 66040Z   18160.52157561  .00000847  00000-0  13897-2 0  9990
2 28610 100.4988  29.4058 0047473  50.3988  68.1220 13.50418912684758
Source of the keplerian elements: AFSPC